User: anonymous   Login
Location: Bois de la Silve
(44.4667°N, 6.7833°E)
Time: 11:16:19
(UTC+00:00)
Language:

USA 238 DEB - Orbit

View from above orbital plane
View from above orbital plane
View from above satellite
View from above satellite

Ground track
Ground track

The orbit data is extracted from the following two-line orbital elements,

1 38773U 12048P   21169.01782928 0.00000000  00000-0  00000-0 0    02
2 38773  63.4444 180.5215 0154037 359.0978   0.9022 13.40812598    02
Epoch (UTC): 18 June 2021 00:25:40
Eccentricity: 0.0154037
inclination: 63.4444°
perigee height: 991 km
apogee height: 1221 km
right ascension of ascending node: 180.5215°
argument of perigee: 359.0978°
revolutions per day: 13.40812598
mean anomaly at epoch: 0.9022°
orbit number at epoch: 0

The dashed part of the orbit path shows where the satellite is in the earth's shadow,  

DLR